| time (UTC) | temp F | wind direction | speed knots | gust knots | rain 1hr in | rain 24hr in | rain mn in | humidity % | barometer mb |
| 20260507084103 | 45 | 214 | 8.7 | 14.8 | 0.00 | 0.00 | 0.00 | 76 | 1014.0 |
| 20260507083604 | 45 | 215 | 10.4 | 13.9 | 0.00 | 0.00 | 0.00 | 75 | 1014.1 |
| 20260507083103 | 45 | 215 | 10.4 | 15.6 | 0.00 | 0.00 | 0.00 | 75 | 1014.1 |
| 20260507082604 | 45 | 213 | 10.4 | 15.6 | 0.00 | 0.00 | 0.00 | 76 | 1014.1 |
| 20260507082103 | 45 | 215 | 7.8 | 17.4 | 0.00 | 0.00 | 0.00 | 75 | 1014.1 |
| 20260507081604 | 45 | 214 | 8.7 | 13.0 | 0.00 | 0.00 | 0.00 | 75 | 1014.2 |
| 20260507081103 | 45 | 215 | 10.4 | 13.9 | 0.00 | 0.00 | 0.00 | 75 | 1014.3 |
| 20260507080604 | 45 | 225 | 7.0 | 13.0 | 0.00 | 0.00 | 0.00 | 74 | 1014.5 |
| 20260507080103 | 45 | 230 | 7.0 | 12.2 | 0.00 | 0.00 | 0.00 | 74 | 1014.8 |
| 20260507075603 | 45 | 212 | 7.8 | 11.3 | 0.00 | 0.00 | 0.00 | 74 | 1014.8 |
| 20260507074603 | 45 | 244 | 6.1 | 13.0 | 0.00 | 0.00 | 0.00 | 74 | 1014.8 |
| 20260507074103 | 45 | 229 | 7.8 | 11.3 | 0.00 | 0.00 | 0.00 | 74 | 1014.9 |
| 20260507073603 | 45 | 236 | 7.8 | 12.2 | 0.00 | 0.00 | 0.00 | 73 | 1015.1 |
| 20260507073104 | 45 | 223 | 6.1 | 13.0 | 0.00 | 0.00 | 0.00 | 73 | 1015.1 |
| 20260507072603 | 45 | 236 | 7.0 | 13.9 | 0.00 | 0.00 | 0.00 | 73 | 1015.2 |
| 20260507072104 | 46 | 223 | 7.0 | 11.3 | 0.00 | 0.00 | 0.00 | 73 | 1015.2 |
| 20260507071604 | 46 | 217 | 7.8 | 13.9 | 0.00 | 0.00 | 0.00 | 73 | 1015.4 |
| 20260507071103 | 46 | 252 | 7.8 | 12.2 | 0.00 | 0.00 | 0.00 | 72 | 1015.5 |
| 20260507070604 | 46 | 219 | 7.0 | 12.2 | 0.00 | 0.00 | 0.00 | 72 | 1015.4 |
| 20260507065604 | 46 | 218 | 7.0 | 13.9 | 0.00 | 0.00 | 0.00 | 70 | 1015.6 |
| 20260507065104 | 46 | 224 | 7.8 | 12.2 | 0.00 | 0.00 | 0.00 | 70 | 1015.6 |
| 20260507064603 | 46 | 240 | 7.0 | 13.9 | 0.00 | 0.00 | 0.00 | 70 | 1015.6 |
| 20260507064104 | 46 | 226 | 8.7 | 17.4 | 0.00 | 0.00 | 0.00 | 70 | 1015.6 |
| 20260507063603 | 46 | 251 | 8.7 | 13.9 | 0.00 | 0.00 | 0.00 | 70 | 1015.7 |
| 20260507063104 | 46 | 221 | 8.7 | 14.8 | 0.00 | 0.00 | 0.00 | 70 | 1015.7 |
| 20260507062603 | 46 | 220 | 7.8 | 12.2 | 0.00 | 0.00 | 0.00 | 70 | 1015.8 |
| 20260507062104 | 46 | 230 | 7.8 | 12.2 | 0.00 | 0.00 | 0.00 | 70 | 1015.8 |
| 20260507061603 | 46 | 219 | 7.8 | 12.2 | 0.00 | 0.00 | 0.00 | 70 | 1015.8 |
| 20260507061104 | 46 | 219 | 8.7 | 13.9 | 0.00 | 0.00 | 0.00 | 70 | 1015.8 |
| 20260507060604 | 46 | 219 | 8.7 | 12.2 | 0.00 | 0.00 | 0.00 | 69 | 1015.9 |
| 20260507060104 | 47 | 226 | 6.1 | 11.3 | 0.00 | 0.00 | 0.00 | 68 | 1016.1 |
| 20260507055103 | 47 | 225 | 6.1 | 11.3 | 0.00 | 0.00 | 0.00 | 68 | 1016.2 |
| 20260507054604 | 47 | 251 | 7.8 | 11.3 | 0.00 | 0.00 | 0.00 | 68 | 1016.2 |
| 20260507054103 | 47 | 250 | 7.8 | 12.2 | 0.00 | 0.00 | 0.00 | 67 | 1016.1 |
| 20260507053604 | 47 | 241 | 6.1 | 13.9 | 0.00 | 0.00 | 0.00 | 67 | 1016.2 |
| 20260507052604 | 47 | 214 | 7.0 | 12.2 | 0.00 | 0.00 | 0.00 | 67 | 1016.1 |
| 20260507052104 | 47 | 224 | 7.8 | 13.9 | 0.00 | 0.00 | 0.00 | 66 | 1016.1 |
| 20260507051603 | 47 | 227 | 9.6 | 14.8 | 0.00 | 0.00 | 0.00 | 66 | 1016.2 |
| 20260507051104 | 47 | 220 | 7.8 | 11.3 | 0.00 | 0.00 | 0.00 | 66 | 1016.2 |
| 20260507050604 | 47 | 231 | 7.0 | 12.2 | 0.00 | 0.00 | 0.00 | 67 | 1016.2 |
| 20260507050104 | 47 | 228 | 7.8 | 15.6 | 0.00 | 0.00 | 0.00 | 66 | 1016.2 |
| 20260507045603 | 48 | 217 | 8.7 | 14.8 | 0.00 | 0.00 | 0.00 | 65 | 1016.2 |
| 20260507045104 | 48 | 229 | 9.6 | 14.8 | 0.00 | 0.00 | 0.00 | 65 | 1016.3 |
| 20260507044104 | 48 | 228 | 9.6 | 13.0 | 0.00 | 0.00 | 0.00 | 63 | 1016.4 |
| 20260507043603 | 48 | 221 | 7.8 | 13.0 | 0.00 | 0.00 | 0.00 | 63 | 1016.4 |
| 20260507043104 | 48 | 211 | 8.7 | 11.3 | 0.00 | 0.00 | 0.00 | 61 | 1016.4 |
| 20260507042603 | 48 | 209 | 8.7 | 12.2 | 0.00 | 0.00 | 0.00 | 59 | 1016.5 |
| 20260507042103 | 48 | 217 | 8.7 | 12.2 | 0.00 | 0.00 | 0.00 | 59 | 1016.6 |
| 20260507041103 | 49 | 213 | 7.0 | 10.4 | 0.00 | 0.00 | 0.00 | 56 | 1016.8 |
| 20260507040604 | 49 | 218 | 6.1 | 11.3 | 0.00 | 0.00 | 0.00 | 56 | 1016.8 |
| 20260507035604 | 50 | 216 | 7.8 | 12.2 | 0.00 | 0.00 | 0.00 | 56 | 1016.8 |
| 20260507034103 | 50 | 223 | 4.3 | 11.3 | 0.00 | 0.00 | 0.00 | 54 | 1016.9 |
| 20260507033604 | 50 | 219 | 6.1 | 10.4 | 0.00 | 0.00 | 0.00 | 55 | 1016.8 |
| 20260507033103 | 50 | 234 | 6.1 | 8.7 | 0.00 | 0.00 | 0.00 | 55 | 1016.9 |
| 20260507032604 | 50 | 217 | 6.1 | 10.4 | 0.00 | 0.00 | 0.00 | 53 | 1016.9 |
| 20260507032103 | 51 | 223 | 5.2 | 11.3 | 0.00 | 0.00 | 0.00 | 54 | 1016.8 |
| 20260507031604 | 51 | 233 | 7.0 | 10.4 | 0.00 | 0.00 | 0.00 | 53 | 1016.8 |
| 20260507031104 | 51 | 208 | 6.1 | 10.4 | 0.00 | 0.00 | 0.00 | 54 | 1016.9 |
| 20260507030604 | 51 | 227 | 6.1 | 10.4 | 0.00 | 0.00 | 0.00 | 54 | 1016.8 |
| 20260507030104 | 51 | 221 | 6.1 | 11.3 | 0.00 | 0.00 | 0.00 | 55 | 1016.8 |
| 20260507025603 | 51 | 214 | 8.7 | 11.3 | 0.00 | 0.00 | 0.00 | 53 | 1016.8 |
| 20260507025103 | 51 | 227 | 6.1 | 11.3 | 0.00 | 0.00 | 0.00 | 54 | 1016.8 |
| 20260507024604 | 52 | 225 | 6.1 | 10.4 | 0.00 | 0.00 | 0.00 | 53 | 1016.8 |
| 20260507024103 | 52 | 212 | 7.8 | 11.3 | 0.00 | 0.00 | 0.00 | 54 | 1016.8 |
| 20260507023604 | 52 | 213 | 8.7 | 11.3 | 0.00 | 0.00 | 0.00 | 53 | 1016.8 |
| 20260507023104 | 52 | 214 | 7.8 | 11.3 | 0.00 | 0.00 | 0.00 | 54 | 1016.8 |
| 20260507022603 | 52 | 215 | 7.8 | 10.4 | 0.00 | 0.00 | 0.00 | 54 | 1016.8 |
| 20260507022104 | 52 | 204 | 7.8 | 11.3 | 0.00 | 0.00 | 0.00 | 53 | 1016.7 |
| 20260507021603 | 52 | 222 | 6.1 | 8.7 | 0.00 | 0.00 | 0.00 | 53 | 1016.8 |
| 20260507021104 | 52 | 214 | 6.1 | 12.2 | 0.00 | 0.00 | 0.00 | 51 | 1016.7 |
| 20260507020604 | 53 | 225 | 6.1 | 11.3 | 0.00 | 0.00 | 0.00 | 50 | 1016.8 |
| 20260507015104 | 53 | 222 | 7.8 | 12.2 | 0.00 | 0.00 | 0.00 | 48 | 1016.7 |
| 20260507014104 | 54 | 217 | 8.7 | 12.2 | 0.00 | 0.00 | 0.00 | 46 | 1016.5 |
| 20260507013603 | 54 | 234 | 7.0 | 12.2 | 0.00 | 0.00 | 0.00 | 44 | 1016.5 |
| 20260507013103 | 54 | 232 | 8.7 | 11.3 | 0.00 | 0.00 | 0.00 | 43 | 1016.5 |
| 20260507012604 | 54 | 223 | 5.2 | 8.7 | 0.00 | 0.00 | 0.00 | 41 | 1016.3 |
| 20260507012104 | 55 | 221 | 7.0 | 11.3 | 0.00 | 0.00 | 0.00 | 40 | 1016.4 |
| 20260507011604 | 55 | 235 | 6.1 | 11.3 | 0.00 | 0.00 | 0.00 | 39 | 1016.4 |
| 20260507011103 | 55 | 208 | 5.2 | 10.4 | 0.00 | 0.00 | 0.00 | 40 | 1016.4 |
| 20260507010604 | 56 | 216 | 4.3 | 10.4 | 0.00 | 0.00 | 0.00 | 41 | 1016.4 |
| 20260507005604 | 56 | 223 | 5.2 | 11.3 | 0.00 | 0.00 | 0.00 | 42 | 1016.5 |
| 20260507005104 | 56 | 207 | 3.5 | 8.7 | 0.00 | 0.00 | 0.00 | 40 | 1016.4 |
| 20260507004604 | 56 | 237 | 5.2 | 7.8 | 0.00 | 0.00 | 0.00 | 39 | 1016.4 |
| 20260507004104 | 56 | 207 | 3.5 | 11.3 | 0.00 | 0.00 | 0.00 | 38 | 1016.4 |
| 20260507003602 | 56 | 227 | 5.2 | 10.4 | 0.00 | 0.00 | 0.00 | 38 | 1016.5 |
| 20260507003103 | 56 | 225 | 7.0 | 12.2 | 0.00 | 0.00 | 0.00 | 37 | 1016.5 |
| 20260507002602 | 57 | 237 | 5.2 | 11.3 | 0.00 | 0.00 | 0.00 | 37 | 1016.5 |
| 20260507002102 | 57 | 238 | 7.0 | 11.3 | 0.00 | 0.00 | 0.00 | 38 | 1016.5 |
| 20260507001102 | 57 | 240 | 7.8 | 13.0 | 0.00 | 0.00 | 0.00 | 37 | 1016.6 |
| 20260507000602 | 57 | 259 | 9.6 | 11.3 | 0.00 | 0.00 | 0.00 | 35 | 1016.7 |
| 20260506235602 | 57 | 225 | 5.2 | 11.3 | 0.00 | 0.00 | 0.00 | 32 | 1016.7 |
| 20260506235102 | 57 | 234 | 6.1 | 11.3 | 0.00 | 0.00 | 0.00 | 32 | 1016.7 |
| 20260506234603 | 57 | 273 | 7.0 | 11.3 | 0.00 | 0.00 | 0.00 | 33 | 1016.7 |
| 20260506234102 | 57 | 223 | 7.0 | 12.2 | 0.00 | 0.00 | 0.00 | 34 | 1016.7 |
| 20260506233602 | 57 | 255 | 8.7 | 14.8 | 0.00 | 0.00 | 0.00 | 33 | 1016.7 |
| 20260506233102 | 58 | 225 | 7.8 | 11.3 | 0.00 | 0.00 | 0.00 | 32 | 1016.8 |
| 20260506232602 | 58 | 269 | 7.0 | 11.3 | 0.00 | 0.00 | 0.00 | 31 | 1016.7 |
| 20260506231602 | 58 | 245 | 7.0 | 12.2 | 0.00 | 0.00 | 0.00 | 29 | 1016.7 |
| 20260506231102 | 57 | 292 | 5.2 | 8.7 | 0.00 | 0.00 | 0.00 | 30 | 1016.6 |
| 20260506230602 | 57 | 260 | 6.1 | 10.4 | 0.00 | 0.00 | 0.00 | 30 | 1016.7 |
| 20260506225602 | 57 | 214 | 4.3 | 11.3 | 0.00 | 0.00 | 0.00 | 28 | 1016.7 |
| 20260506225103 | 57 | 274 | 8.7 | 11.3 | 0.00 | 0.00 | 0.00 | 28 | 1016.8 |
| 20260506224602 | 58 | 228 | 7.0 | 12.2 | 0.00 | 0.00 | 0.00 | 29 | 1016.8 |
| 20260506224102 | 58 | 250 | 6.1 | 11.3 | 0.00 | 0.00 | 0.00 | 27 | 1016.8 |
| 20260506223602 | 57 | 212 | 5.2 | 11.3 | 0.00 | 0.00 | 0.00 | 29 | 1016.8 |
| 20260506223103 | 57 | 251 | 6.1 | 11.3 | 0.00 | 0.00 | 0.00 | 28 | 1016.8 |
| 20260506222602 | 58 | 233 | 8.7 | 15.6 | 0.00 | 0.00 | 0.00 | 28 | 1016.8 |
| 20260506221602 | 57 | 275 | 5.2 | 10.4 | 0.00 | 0.00 | 0.00 | 28 | 1016.9 |
| 20260506221102 | 57 | 254 | 6.1 | 11.3 | 0.00 | 0.00 | 0.00 | 27 | 1017.0 |
| 20260506220602 | 58 | 294 | 9.6 | 13.0 | 0.00 | 0.00 | 0.00 | 26 | 1017.0 |
| 20260506215602 | 58 | 274 | 7.0 | 14.8 | 0.00 | 0.00 | 0.00 | 26 | 1017.0 |
| 20260506215102 | 57 | 303 | 8.7 | 11.3 | 0.00 | 0.00 | 0.00 | 27 | 1017.2 |
| 20260506214602 | 58 | 267 | 8.7 | 11.3 | 0.00 | 0.00 | 0.00 | 26 | 1017.2 |
| 20260506214102 | 57 | 242 | 6.1 | 11.3 | 0.00 | 0.00 | 0.00 | 27 | 1017.2 |
| 20260506213602 | 57 | 269 | 6.1 | 10.4 | 0.00 | 0.00 | 0.00 | 28 | 1017.3 |
| 20260506213102 | 57 | 261 | 4.3 | 11.3 | 0.00 | 0.00 | 0.00 | 26 | 1017.3 |
| 20260506212602 | 57 | 253 | 5.2 | 12.2 | 0.00 | 0.00 | 0.00 | 27 | 1017.4 |
| 20260506212102 | 58 | 304 | 7.8 | 11.3 | 0.00 | 0.00 | 0.00 | 25 | 1017.5 |
| 20260506211603 | 57 | 239 | 2.6 | 5.2 | 0.00 | 0.00 | 0.00 | 26 | 1017.6 |
| 20260506210602 | 57 | 300 | 6.1 | 11.3 | 0.00 | 0.00 | 0.00 | 29 | 1017.7 |
| 20260506205603 | 57 | 243 | 7.8 | 13.0 | 0.00 | 0.00 | 0.00 | 26 | 1017.9 |
| 20260506205102 | 57 | 291 | 10.4 | 14.8 | 0.00 | 0.00 | 0.00 | 25 | 1018.0 |
| 20260506204102 | 56 | 271 | 6.1 | 11.3 | 0.00 | 0.00 | 0.00 | 29 | 1018.1 |
| 20260506203602 | 56 | 294 | 8.7 | 12.2 | 0.00 | 0.00 | 0.00 | 28 | 1018.1 |
| 20260506203102 | 56 | 276 | 5.2 | 8.7 | 0.00 | 0.00 | 0.00 | 27 | 1018.1 |
| 20260506201602 | 57 | 273 | 8.7 | 11.3 | 0.00 | 0.00 | 0.00 | 27 | 1018.4 |
| 20260506200603 | 57 | 286 | 10.4 | 12.2 | 0.00 | 0.00 | 0.00 | 27 | 1018.4 |
| 20260506195602 | 56 | 339 | 7.8 | 11.3 | 0.00 | 0.00 | 0.00 | 28 | 1018.4 |
| 20260506195102 | 57 | 266 | 6.1 | 8.7 | 0.00 | 0.00 | 0.00 | 30 | 1018.6 |
| 20260506194102 | 56 | 314 | 6.1 | 12.2 | 0.00 | 0.00 | 0.00 | 27 | 1018.6 |
| 20260506193603 | 56 | 359 | 1.7 | 7.8 | 0.00 | 0.00 | 0.00 | 28 | 1018.8 |
| 20260506192602 | 56 | 294 | 10.4 | 13.9 | 0.00 | 0.00 | 0.00 | 30 | 1018.8 |
| 20260506192102 | 55 | 309 | 4.3 | 10.4 | 0.00 | 0.00 | 0.00 | 30 | 1018.9 |
| 20260506191602 | 55 | 244 | 6.1 | 11.3 | 0.00 | 0.00 | 0.00 | 30 | 1018.9 |
| 20260506191102 | 54 | 307 | 7.8 | 11.3 | 0.00 | 0.00 | 0.00 | 29 | 1019.0 |
| 20260506185602 | 56 | 271 | 8.7 | 13.0 | 0.00 | 0.00 | 0.00 | 29 | 1019.1 |
| 20260506185102 | 55 | 212 | 3.5 | 7.8 | 0.00 | 0.00 | 0.00 | 29 | 1019.1 |
| 20260506184602 | 54 | 254 | 0.9 | 5.2 | 0.00 | 0.00 | 0.00 | 28 | 1019.1 |
| 20260506184103 | 54 | 254 | 5.2 | 10.4 | 0.00 | 0.00 | 0.00 | 30 | 1019.2 |
| 20260506183602 | 54 | 278 | 6.1 | 11.3 | 0.00 | 0.00 | 0.00 | 31 | 1019.3 |
| 20260506183103 | 55 | 302 | 11.3 | 13.9 | 0.00 | 0.00 | 0.00 | 29 | 1019.2 |
| 20260506182603 | 55 | 268 | 10.4 | 12.2 | 0.00 | 0.00 | 0.00 | 30 | 1019.4 |
| 20260506182102 | 55 | 290 | 6.1 | 20.0 | 0.00 | 0.00 | 0.00 | 34 | 1019.3 |
| 20260506181102 | 54 | 263 | 2.6 | 10.4 | 0.00 | 0.00 | 0.00 | 29 | 1019.4 |
| 20260506180603 | 54 | 244 | 6.1 | 12.2 | 0.00 | 0.00 | 0.00 | 29 | 1019.5 |
| 20260506175103 | 53 | 327 | 0.9 | 6.1 | 0.00 | 0.00 | 0.00 | 32 | 1019.8 |
| 20260506174602 | 53 | 281 | 2.6 | 11.3 | 0.00 | 0.00 | 0.00 | 32 | 1019.7 |
| 20260506174103 | 53 | 307 | 3.5 | 8.7 | 0.00 | 0.00 | 0.00 | 32 | 1019.7 |
| 20260506173602 | 53 | 315 | 2.6 | 5.2 | 0.00 | 0.00 | 0.00 | 30 | 1019.7 |
| 20260506173103 | 52 | 308 | 5.2 | 8.7 | 0.00 | 0.00 | 0.00 | 31 | 1019.7 |
| 20260506172103 | 53 | 277 | 7.8 | 12.2 | 0.00 | 0.00 | 0.00 | 30 | 1019.8 |
| 20260506171602 | 54 | 249 | 6.1 | 11.3 | 0.00 | 0.00 | 0.00 | 31 | 1019.7 |
| 20260506171102 | 54 | 304 | 6.1 | 11.3 | 0.00 | 0.00 | 0.00 | 30 | 1019.8 |
| 20260506170602 | 54 | 309 | 11.3 | 13.0 | 0.00 | 0.00 | 0.00 | 30 | 1019.9 |
| 20260506165602 | 53 | 285 | 1.7 | 6.1 | 0.00 | 0.00 | 0.00 | 32 | 1019.9 |
| 20260506165102 | 53 | 305 | 4.3 | 8.7 | 0.00 | 0.00 | 0.00 | 30 | 1019.8 |
| 20260506164103 | 53 | 312 | 4.3 | 10.4 | 0.00 | 0.00 | 0.00 | 33 | 1019.9 |
| 20260506163602 | 53 | 294 | 9.6 | 11.3 | 0.00 | 0.00 | 0.00 | 31 | 1019.8 |
| 20260506163103 | 53 | 32 | 5.2 | 11.3 | 0.00 | 0.00 | 0.00 | 30 | 1020.0 |
| 20260506162602 | 53 | 309 | 5.2 | 11.3 | 0.00 | 0.00 | 0.00 | 34 | 1020.0 |
| 20260506162102 | 52 | 313 | 5.2 | 11.3 | 0.00 | 0.00 | 0.00 | 32 | 1020.0 |
| 20260506161602 | 52 | 55 | 4.3 | 10.4 | 0.00 | 0.00 | 0.00 | 34 | 1020.0 |
| 20260506161102 | 51 | 190 | 2.6 | 8.7 | 0.00 | 0.00 | 0.00 | 32 | 1019.9 |
| 20260506160603 | 52 | 234 | 6.1 | 11.3 | 0.00 | 0.00 | 0.00 | 30 | 1019.9 |
| 20260506155602 | 53 | 315 | 1.7 | 7.8 | 0.00 | 0.00 | 0.00 | 32 | 1020.0 |
| 20260506154603 | 53 | 294 | 1.7 | 7.0 | 0.00 | 0.00 | 0.00 | 34 | 1020.0 |
| 20260506154102 | 52 | 294 | 2.6 | 5.2 | 0.00 | 0.00 | 0.00 | 34 | 1020.1 |
| 20260506153603 | 52 | 293 | 3.5 | 7.8 | 0.00 | 0.00 | 0.00 | 31 | 1020.1 |
| 20260506153102 | 51 | 293 | 1.7 | 5.2 | 0.00 | 0.00 | 0.00 | 34 | 1020.1 |
| 20260506152603 | 50 | 292 | 2.6 | 7.0 | 0.00 | 0.00 | 0.00 | 35 | 1020.1 |
| 20260506152102 | 50 | 287 | 0.9 | 4.3 | 0.00 | 0.00 | 0.00 | 33 | 1020.1 |
| 20260506151603 | 50 | 287 | 4.3 | 7.0 | 0.00 | 0.00 | 0.00 | 36 | 1020.1 |
| 20260506151103 | 49 | 286 | 2.6 | 6.1 | 0.00 | 0.00 | 0.00 | 36 | 1020.1 |
| 20260506150602 | 49 | 287 | 0.9 | 7.0 | 0.00 | 0.00 | 0.00 | 34 | 1020.1 |
| 20260506145602 | 49 | 286 | 1.7 | 4.3 | 0.00 | 0.00 | 0.00 | 36 | 1020.1 |
| 20260506145103 | 49 | 286 | 1.7 | 4.3 | 0.00 | 0.00 | 0.00 | 37 | 1020.0 |
| 20260506144602 | 49 | 286 | 0.9 | 2.6 | 0.00 | 0.00 | 0.00 | 39 | 1020.0 |
| 20260506144102 | 49 | 286 | 0.9 | 1.7 | 0.00 | 0.00 | 0.00 | 40 | 1019.9 |
| 20260506143602 | 48 | 286 | 1.7 | 2.6 | 0.00 | 0.00 | 0.00 | 42 | 1019.9 |
| 20260506143102 | 48 | 286 | 0.9 | 1.7 | 0.00 | 0.00 | 0.00 | 43 | 1019.9 |
| 20260506142603 | 48 | 286 | 0.0 | 1.7 | 0.00 | 0.00 | 0.00 | 42 | 1019.8 |
| 20260506142102 | 47 | 286 | 0.0 | 1.7 | 0.00 | 0.00 | 0.00 | 43 | 1019.7 |
| 20260506141103 | 47 | 286 | 0.0 | 1.7 | 0.00 | 0.00 | 0.00 | 44 | 1019.6 |
| 20260506140602 | 47 | 286 | 0.9 | 1.7 | 0.00 | 0.00 | 0.00 | 44 | 1019.6 |
| 20260506135602 | 46 | 286 | 0.0 | 0.0 | 0.00 | 0.00 | 0.00 | 45 | 1019.7 |
| 20260506135103 | 46 | 286 | 0.0 | 0.0 | 0.00 | 0.00 | 0.00 | 46 | 1019.8 |
| 20260506134102 | 45 | 286 | 0.9 | 1.7 | 0.00 | 0.00 | 0.00 | 49 | 1019.8 |
| 20260506133603 | 45 | 286 | 1.7 | 2.6 | 0.00 | 0.00 | 0.00 | 55 | 1019.8 |
| 20260506133102 | 45 | 286 | 1.7 | 2.6 | 0.00 | 0.00 | 0.00 | 55 | 1019.7 |
| 20260506132102 | 44 | 286 | 1.7 | 1.7 | 0.00 | 0.00 | 0.00 | 59 | 1019.5 |
| 20260506131603 | 44 | 286 | 1.7 | 2.6 | 0.00 | 0.00 | 0.00 | 60 | 1019.4 |
| 20260506131103 | 43 | 286 | 0.9 | 1.7 | 0.00 | 0.00 | 0.00 | 61 | 1019.3 |
| 20260506130602 | 43 | 286 | 0.9 | 1.7 | 0.00 | 0.00 | 0.00 | 61 | 1019.3 |
| 20260506124102 | 41 | 286 | 0.9 | 2.6 | 0.00 | 0.00 | 0.00 | 64 | 1019.1 |
| 20260506123602 | 41 | 286 | 0.9 | 2.6 | 0.00 | 0.00 | 0.00 | 64 | 1019.0 |
| 20260506123103 | 41 | 286 | 0.9 | 0.9 | 0.00 | 0.00 | 0.00 | 64 | 1018.9 |
| 20260506122602 | 40 | 286 | 0.0 | 0.9 | 0.00 | 0.00 | 0.00 | 64 | 1018.8 |
| 20260506122103 | 40 | 286 | 0.0 | 1.7 | 0.00 | 0.00 | 0.00 | 65 | 1018.7 |
| 20260506121602 | 40 | 286 | 0.9 | 1.7 | 0.00 | 0.00 | 0.00 | 64 | 1018.7 |
| 20260506121102 | 40 | 286 | 0.9 | 0.9 | 0.00 | 0.00 | 0.00 | 64 | 1018.6 |
| 20260506115603 | 40 | 286 | 0.9 | 1.7 | 0.00 | 0.00 | 0.00 | 64 | 1018.4 |
| 20260506115103 | 40 | 286 | 1.7 | 1.7 | 0.00 | 0.00 | 0.00 | 64 | 1018.3 |
| 20260506114602 | 40 | 286 | 1.7 | 2.6 | 0.00 | 0.00 | 0.00 | 64 | 1018.2 |
| 20260506114103 | 40 | 286 | 0.9 | 2.6 | 0.00 | 0.00 | 0.00 | 64 | 1018.2 |
| 20260506113602 | 40 | 286 | 1.7 | 2.6 | 0.00 | 0.00 | 0.00 | 64 | 1018.1 |
| 20260506113102 | 40 | 286 | 0.9 | 2.6 | 0.00 | 0.00 | 0.00 | 63 | 1018.1 |
| 20260506112102 | 40 | 286 | 0.9 | 1.7 | 0.00 | 0.00 | 0.00 | 63 | 1018.0 |
| 20260506111102 | 40 | 286 | 0.9 | 1.7 | 0.00 | 0.00 | 0.00 | 63 | 1017.9 |
| 20260506110604 | 40 | 286 | 1.7 | 2.6 | 0.00 | 0.00 | 0.00 | 63 | 1017.8 |
| 20260506105603 | 40 | 286 | 0.9 | 1.7 | 0.00 | 0.00 | 0.00 | 62 | 1017.9 |
| 20260506104602 | 40 | 286 | 0.9 | 1.7 | 0.00 | 0.00 | 0.00 | 62 | 1017.9 |
| 20260506103602 | 40 | 286 | 0.0 | 0.9 | 0.00 | 0.00 | 0.00 | 62 | 1017.7 |
| 20260506103103 | 40 | 286 | 0.0 | 0.0 | 0.00 | 0.00 | 0.00 | 61 | 1017.7 |
| 20260506102603 | 40 | 286 | 0.0 | 0.0 | 0.00 | 0.00 | 0.00 | 61 | 1017.7 |
| 20260506102102 | 40 | 286 | 0.9 | 0.9 | 0.00 | 0.00 | 0.00 | 60 | 1017.7 |
| 20260506101603 | 40 | 286 | 0.0 | 0.0 | 0.00 | 0.00 | 0.00 | 60 | 1017.7 |
| 20260506101103 | 40 | 286 | 0.9 | 1.7 | 0.00 | 0.00 | 0.00 | 59 | 1017.6 |
| 20260506100603 | 40 | 286 | 0.9 | 1.7 | 0.00 | 0.00 | 0.00 | 59 | 1017.6 |
| 20260506095602 | 40 | 286 | 0.0 | 0.9 | 0.00 | 0.00 | 0.00 | 59 | 1017.6 |
| 20260506095103 | 40 | 286 | 0.0 | 0.9 | 0.00 | 0.00 | 0.00 | 59 | 1017.7 |
| 20260506094602 | 40 | 286 | 0.0 | 1.7 | 0.00 | 0.00 | 0.00 | 58 | 1017.7 |
| 20260506094103 | 41 | 286 | 0.0 | 0.0 | 0.00 | 0.00 | 0.00 | 57 | 1017.7 |
| 20260506092603 | 41 | 286 | 0.0 | 0.0 | 0.00 | 0.00 | 0.00 | 55 | 1017.5 |
| 20260506092103 | 41 | 286 | 0.0 | 1.7 | 0.00 | 0.00 | 0.00 | 54 | 1017.5 |
| 20260506091603 | 42 | 286 | 0.9 | 0.9 | 0.00 | 0.00 | 0.00 | 52 | 1017.4 |
| 20260506091102 | 42 | 286 | 0.9 | 1.7 | 0.00 | 0.00 | 0.00 | 51 | 1017.3 |
| 20260506090603 | 42 | 286 | 0.9 | 1.7 | 0.00 | 0.00 | 0.00 | 51 | 1017.3 |
| 20260506085603 | 42 | 286 | 0.0 | 1.7 | 0.00 | 0.00 | 0.00 | 49 | 1017.4 |
| 20260506084604 | 42 | 286 | 0.9 | 1.7 | 0.00 | 0.00 | 0.00 | 48 | 1017.3 |